This demonstration page uses our WeatherBlox Daily Observations layout. Learn more.

Hourly Observations for October 1, 2019

Temp ( °F °C ) Dew Point ( °F °C ) Humidity (%) Winds ( mph kmh ) Pressure ( in mb ) Visibility ( mi km ) Precip ( " mm )
12:54 am 00:54 Mostly Clear 76 24.4 69 20.6 79 79 SE 6 9 29.8 1009 10 16.09344 0 0
1:54 am 01:54 Cloudy 76 24.4 69 20.6 79 79 Calm 29.8 1009 10 16.09344 0 0
2:54 am 02:54 Cloudy 76 24.4 70 21.1 82 82 Calm 29.8 1009 10 16.09344 0 0
3:06 am 03:06 Cloudy 72 22.2 66 18.9 82 82 N 14 22 29.8 1009 10 16.09344 0 0
3:54 am 03:54 Cloudy 71 21.7 67 19.4 87 87 N 5 7 29.8 1009 10 16.09344 0.001 0.001
4:54 am 04:54 Cloudy 71 21.7 68 20 90 90 S 3 6 29.8 1009 10 16.09344 0.001 0.001
5:33 am 05:33 Cloudy with Nearby Thunderstorms 74 23.3 70 21.1 88 88 S 7 11 29.77 1008 10 16.09344 0 0
5:54 am 05:54 Cloudy with Nearby Thunderstorms 75 23.9 70 21.1 84 84 S 8 13 29.8 1009 10 16.09344 0 0
6:01 am 06:01 Cloudy 75 23.9 70 21.1 84 84 S 8 13 29.77 1008 10 16.09344 0 0
6:39 am 06:39 Cloudy 72 22.2 68 20 87 87 NNW 9 15 29.8 1009 10 16.09344 0 0
6:51 am 06:51 Cloudy 70 21 64 18 83 83 N 9 15 29.83 1010 10 16.09344 0 0
6:54 am 06:54 Cloudy 70 21.1 66 18.9 87 87 N 7 11 29.8 1009 10 16.09344 0 0
7:38 am 07:38 Cloudy 66 18.9 62 16.7 87 87 N 8 13 29.85 1011 10 16.09344 0 0
7:54 am 07:54 Cloudy with Light Rain 65 18.3 62 16.7 90 90 N 8 13 29.85 1011 10 16.09344 0.001 0.001
8:16 am 08:16 Cloudy with Light Rain 65 18.3 62 16.7 90 90 NNE 7 11 29.85 1011 10 16.09344 0.001 0.001
8:54 am 08:54 Cloudy with Light Rain 65 18.3 62 16.7 90 90 NNE 8 13 29.85 1011 10 16.09344 0.001 0.001
9:14 am 09:14 Cloudy with Light Rain 65 18.3 62 16.7 90 90 NNE 8 13 29.88 1012 10 16.09344 0.001 0.001
9:54 am 09:54 Cloudy with Light Rain 64 17.8 61 16.1 90 90 NE 7 11 29.85 1011 10 16.09344 0.01 0.254
10:54 am 10:54 Cloudy with Light Rain 62 16.7 59 15 90 90 N 14 22 29.88 1012 10 16.09344 0.001 0.001
11:46 am 11:46 Cloudy with Rain 61 16.1 59 15 93 93 NE 8 13 29.88 1012 5 8.04672 0.12 3.048
11:54 am 11:54 Cloudy with Light Rain 61 16.1 58 14.4 90 90 NNE 10 17 29.85 1011 7 11.265408 0.13 3.302
12:11 pm 12:11 Cloudy with Rain 61 16.1 58 14.4 90 90 NNE 9 15 29.88 1012 5 8.04672 0.03 0.762
12:54 pm 12:54 Cloudy with Light Rain 61 16.1 58 14.4 90 90 N 7 11 29.85 1011 10 16.09344 0.11 2.794
1:29 pm 13:29 Cloudy with Heavy Rain 60 15.6 58 14.4 93 93 NNE 6 9 29.85 1011 2.5 4.02336 0.07 1.778
1:46 pm 13:46 Cloudy with Heavy Rain 60 15.6 58 14.4 93 93 NNE 6 9 29.85 1011 2.5 4.02336 0.27 6.858
1:54 pm 13:54 Cloudy with Heavy Rain 60 15.6 58 14.4 93 93 N 7 11 29.85 1011 4 6.437376 0.31 7.874
2:02 pm 14:02 Cloudy with Heavy Rain 60 15.6 58 14.4 93 93 NNE 8 13 29.85 1011 2 3.218688 0.04 1.016
2:09 pm 14:09 Cloudy with Heavy Rain 60 15.6 58 14.4 93 93 NNE 9 15 29.85 1011 1 1.609344 0.1 2.54
2:23 pm 14:23 Cloudy with Heavy Rain 60 15.6 58 14.4 93 93 N 10 17 29.83 1010 3 4.828032 0.23 5.842
2:38 pm 14:38 Cloudy with Heavy Rain 59 15 58 14.4 96 96 N 7 11 29.85 1011 1.75 2.816352 0.28 7.112
2:42 pm 14:42 Cloudy with Heavy Thunderstorms 59 15 58 14.4 96 96 N 7 11 29.85 1011 0.75 1.207008 0.33 8.382
2:49 pm 14:49 Cloudy with Heavy Thunderstorms 59 15 57 14 94 94 NNE 7 11 29.85 1011 0.5 0.804672 0.54 13.716
2:54 pm 14:54 Cloudy with Heavy Thunderstorms 59 15 58 14.4 96 96 NNE 3 6 29.83 1010 1 1.609344 0.61 15.494
2:58 pm 14:58 Cloudy with Nearby Thunderstorms 60 15.6 58 14.4 93 93 NE 3 6 29.83 1010 1.5 2.414016 0.02 0.508
3:07 pm 15:07 Cloudy with Nearby Thunderstorms 60 15.6 58 14.4 93 93 ENE 7 11 29.8 1009 2 3.218688 0.07 1.778
3:25 pm 15:25 Cloudy with Rain 60 15.6 58 14.4 93 93 NE 3 6 29.8 1009 3 4.828032 0.15 3.81
3:29 pm 15:29 Cloudy with Heavy Rain 60 15.6 58 14.4 93 93 NNE 6 9 29.8 1009 2 3.218688 0.16 4.064
3:31 pm 15:31 Cloudy with Heavy Rain 60 15.6 58 14.4 93 93 N 8 13 29.8 1009 1.5 2.414016 0.16 4.064
3:33 pm 15:33 Cloudy with Heavy Rain 60 15.6 58 14.4 93 93 N 6 9 29.83 1010 0.75 1.207008 0.18 4.572
3:41 pm 15:41 Cloudy with Nearby Thunderstorms 60 15.6 58 14.4 93 93 N 6 9 29.8 1009 0.5 0.804672 0.43 10.922
3:49 pm 15:49 Cloudy with Nearby Thunderstorms 60 15.6 58 14.4 93 93 N 8 13 29.8 1009 2 3.218688 0.52 13.208
3:57 pm 15:57 Cloudy with Heavy Rain 60 15.6 59 15 96 96 NW 13 20 29.83 1010 2 3.218688 0.11 2.794
4:00 pm 16:00 Cloudy with Heavy Rain 60 15.6 58 14.4 93 93 NNW 10 17 29.83 1010 2 3.218688 0.19 4.826
4:17 pm 16:17 Cloudy with Heavy Thunderstorms 60 15.6 58 14.4 93 93 N 12 19 29.83 1010 2 3.218688 0.56 14.224
4:34 pm 16:34 Cloudy with Light Rain 60 15.6 58 14.4 93 93 N 10 17 29.83 1010 2 3.218688 0.65 16.51
4:54 pm 16:54 Cloudy with Light Rain 59 15 57 13.9 93 93 N 13 20 29.83 1010 2 3.218688 0.65 16.51
5:01 pm 17:01 Cloudy with Light Rain 59 15 57 13.9 93 93 N 14 22 29.85 1011 10 16.09344 0.001 0.001
5:51 pm 17:51 Cloudy with Rain 57 14 55 13 94 94 N 15 24 29.85 1011 5 8.04672 0.01 0.254
5:54 pm 17:54 Cloudy with Rain 58 14.4 55 12.8 90 90 N 12 19 29.83 1010 4 6.437376 0.03 0.762
6:13 pm 18:13 Cloudy with Light Rain 58 14.4 56 13.3 93 93 N 15 24 29.85 1011 8 12.874752 0.03 0.762
6:24 pm 18:24 Cloudy with Light Rain 58 14.4 56 13.3 93 93 N 12 19 29.85 1011 10 16.09344 0.03 0.762
6:43 pm 18:43 Cloudy with Light Rain 57 13.9 55 12.8 93 93 N 12 19 29.85 1011 10 16.09344 0.03 0.762
6:54 pm 18:54 Cloudy with Light Rain 57 13.9 54 12.2 90 90 N 14 22 29.85 1011 10 16.09344 0.03 0.762
7:54 pm 19:54 Cloudy with Heavy Rain 56 13.3 54 12.2 93 93 N 13 20 29.85 1011 3 4.828032 0.04 1.016
8:10 pm 20:10 Cloudy with Heavy Rain 56 13.3 53 11.7 90 90 NNW 16 26 29.88 1012 2.5 4.02336 0.11 2.794
8:25 pm 20:25 Cloudy with Heavy Rain 55 12.8 53 11.7 93 93 N 12 19 29.88 1012 2 3.218688 0.2 5.08
8:45 pm 20:45 Cloudy with Rain 55 12.8 53 11.7 93 93 NNW 6 9 29.91 1013 4 6.437376 0.32 8.128
8:54 pm 20:54 Cloudy with Light Rain 55 12.8 53 11.7 93 93 NNW 7 11 29.88 1012 6 9.656064 0.34 8.636
9:02 pm 21:02 Cloudy with Light Rain 55 12.8 53 11.7 93 93 NNW 6 9 29.94 1014 6 9.656064 0.01 0.254
9:24 pm 21:24 Cloudy with Light Rain 55 12.8 53 11.7 93 93 NNW 9 15 29.91 1013 6 9.656064 0.04 1.016
9:49 pm 21:49 Cloudy with Light Rain 55 13 52 11 88 88 NNW 9 15 29.94 1014 10 16.09344 0.05 1.27
9:54 pm 21:54 Cloudy 55 12.8 52 11.1 90 90 NNW 10 17 29.91 1013 10 16.09344 0.05 1.27
10:54 pm 22:54 Cloudy with Mist and Fog 54 12.2 52 11.1 93 93 NNW 15 24 29.94 1014 6 9.656064 0 0
11:54 pm 23:54 Cloudy 53 11.7 51 10.6 93 93 NNW 12 19 29.94 1014 9 14.484096 0 0

Powered by AerisWeather